Погода в Юркине

Россия / Вологодская область     59°29′22″N   43°34′56″E
темп.,
°C
ветер,
м/с
пор.,
м/с
влажн.,
%
обл.,
%
осадки,
мм/ч
давл.,
гПа
погр.,
м
7 мая, пт
пт700:00+10ю5148580 0.1 1003927
03:00+9зюз41187100 0.6 1004837
06:00+7юз488399 0.0 1006982
09:00+10юз4667100 0.1 10071237
12:00+9юз4669100 0.1 10081222
15:00+9юз4765100 0.2 10091308
18:00+9зюз49605 0.1 10091631
21:00+5ююз39810 0.1 1012192
8 мая, сб
сб800:00+3ююз39860 0.0 1013167
03:00+3ю38915 0.0 1014146
06:00+5ююв3979100 0.0 1014227
09:00+11ю51056100 0.0 1014799
12:00+14ююв61142100 0.0 10122331
15:00+13ююв51150100 0.0 10102069
18:00+11юв51258100 0.0 10081631
21:00+10юв51377100 0.6 10061341
9 мая, вс
вс900:00+9ююв51493100 2.1 10021169
03:00+10ююв61395100 3.8 10011103
06:00+9ююз61487100 0.4 10021214
09:00+6ююз71382100 0.6 10051138
12:00+5юз61190100 0.1 1008887
15:00+5юз61188100 0.2 10121032
18:00+4з41095100 0.3 1017836
21:00+2зюз26945 0.3 1020182
10 мая, пн
пн1000:00+1зюз29965 0.0 1022188
03:00+1зюз26950 0.0 1024121
06:00+4зюз258211 0.0 1025152
09:00+10зюз47495 0.0 1026921
12:00+13зюз574060 0.0 10262262
15:00+13зюз4743100 0.0 10262155
18:00+12зюз485686 0.0 10261469
21:00+9юз3107187 0.0 1027583
11 мая, вт
вт1100:00+6юз3108896 0.0 1028268
03:00+6юз31192100 0.0 1028273
06:00+9юз41283100 0.0 1028390
09:00+15зюз596393 0.0 1028632
12:00+18зюз695182 0.0 10281260
15:00+20зюз684795 0.0 10271489
18:00+18зюз595713 0.0 10271117
21:00+12юз2586100 0.0 102888